Location: Unspecified
(0.0000°N, 0.0000°E)
Time: 04:15:23
(UTC+00:00)

ISS - Pass Details

Date: 08 February 2026
Orbit: 413 x 428 km, 51.6° (Epoch: 18 February)

Event Time Altitude Azimuth Distance (km) Brightness Sun altitude
Exits shadow 05:01:04 - 207° (SSW) 2,095 -0.3 -17.6°
Reaches altitude 10° 05:02:33 10° 204° (SSW) 1,497 -1.0 -17.3°
Maximum altitude 05:05:50 53° 125° (SE) 515 -3.0 -16.5°
Drops below altitude 10° 05:09:06 10° 47° (NE) 1,482 -0.6 -15.7°
Sets 05:11:12 0° 43° (NE) 2,338 0.4 -15.2°
